• In Spain
  • List of Countries
  • For 7 days
  • Water Temperature
  • Satellite Maps
  • Weather Map
  • Weather Widgets
  • user-avatar
    Login

    Hourly Weather Borovec

    Today, 13 November, Tuesday

    Time Temperature Precipitation Wind Pressure Humidity
    00:00 +8°C° 0 mm 1 mps 719 mmHg 60%
    01:00 +8°C° 0 mm 1 mps 719 mmHg 61%
    02:00 +8°C° 0 mm 1 mps 719 mmHg 65%
    03:00 +8°C° 0 mm 1 mps 719 mmHg 65%
    04:00 +7°C° 0 mm 1 mps 719 mmHg 66%
    05:00 +7°C° 0 mm 1 mps 719 mmHg 67%
    06:00 +7°C° 0 mm 1 mps 719 mmHg 67%
    07:00 +7°C° 0 mm 1 mps 719 mmHg 67%
    08:00 +7°C° 0 mm 1 mps 720 mmHg 68%
    09:00 +10°C° 0 mm 1 mps 720 mmHg 60%
    10:00 +12°C° 0 mm 1 mps 720 mmHg 53%
    11:00 +14°C° 0 mm 1 mps 720 mmHg 46%
    12:00 +15°C° 0 mm 2 mps 720 mmHg 44%
    13:00 +16°C° 0 mm 2 mps 720 mmHg 42%
    14:00 +16°C° 0 mm 2 mps 719 mmHg 39%
    15:00 +15°C° 0 mm 2 mps 719 mmHg 46%
    16:00 +13°C° 0 mm 2 mps 719 mmHg 52%
    17:00 +12°C° 0 mm 2 mps 718 mmHg 59%
    18:00 +11°C° 0 mm 1 mps 718 mmHg 64%
    19:00 +10°C° 0 mm 1 mps 718 mmHg 69%
    20:00 +9°C° 0 mm 1 mps 719 mmHg 74%
    21:00 +8°C° 0 mm 1 mps 718 mmHg 75%
    22:00 +8°C° 0 mm 1 mps 718 mmHg 77%
    23:00 +8°C° 0 mm 1 mps 718 mmHg 78%

    Tomorrow, 14 November, Wednesday

    Time Temperature Precipitation Wind Pressure Humidity
    00:00 +7°C° 0 mm 1 mps 718 mmHg 78%
    01:00 +7°C° 0 mm 1 mps 718 mmHg 78%
    02:00 +7°C° 0 mm 1 mps 718 mmHg 78%
    03:00 +7°C° 0 mm 1 mps 718 mmHg 78%
    04:00 +7°C° 0 mm 1 mps 717 mmHg 78%
    05:00 +7°C° 0 mm 1 mps 717 mmHg 78%
    06:00 +7°C° 0 mm 1 mps 717 mmHg 76%
    07:00 +7°C° 0 mm 1 mps 717 mmHg 75%
    08:00 +7°C° 0 mm 1 mps 717 mmHg 73%
    09:00 +9°C° 0 mm 1 mps 717 mmHg 66%
    10:00 +12°C° 0 mm 1 mps 717 mmHg 58%
    11:00 +14°C° 0 mm 2 mps 717 mmHg 50%
    12:00 +14°C° 0 mm 2 mps 717 mmHg 51%
    13:00 +14°C° 0 mm 3 mps 717 mmHg 52%
    14:00 +14°C° 0 mm 3 mps 716 mmHg 53%
    15:00 +13°C° 0 mm 3 mps 716 mmHg 59%
    16:00 +13°C° 0 mm 2 mps 716 mmHg 65%
    17:00 +12°C° 0 mm 2 mps 715 mmHg 71%
    18:00 +10°C° 0 mm 2 mps 715 mmHg 76%
    19:00 +9°C° 0 mm 2 mps 716 mmHg 80%
    20:00 +8°C° 0 mm 2 mps 716 mmHg 85%
    21:00 +8°C° 0 mm 2 mps 716 mmHg 87%
    22:00 +8°C° 0 mm 1 mps 716 mmHg 88%
    23:00 +7°C° 0 mm 1 mps 715 mmHg 90%

    Day after tomorrow, 15 November, Thursday

    Time Temperature Precipitation Wind Pressure Humidity
    00:00 +7°C° 0 mm 1 mps 715 mmHg 88%
    01:00 +7°C° 0 mm 1 mps 715 mmHg 86%
    02:00 +7°C° 0 mm 1 mps 715 mmHg 85%
    03:00 +6°C° 0.1 mm 2 mps 715 mmHg 84%
    04:00 +6°C° 0.1 mm 2 mps 715 mmHg 82%
    05:00 +6°C° 0.1 mm 2 mps 715 mmHg 81%
    06:00 +6°C° 0.1 mm 2 mps 715 mmHg 83%
    07:00 +6°C° 0.1 mm 2 mps 715 mmHg 84%
    08:00 +5°C° 0.1 mm 2 mps 716 mmHg 85%
    09:00 +6°C° 0 mm 2 mps 716 mmHg 79%
    10:00 +7°C° 0 mm 2 mps 716 mmHg 73%
    11:00 +8°C° 0 mm 2 mps 716 mmHg 66%
    12:00 +9°C° 0.1 mm 3 mps 716 mmHg 62%
    13:00 +9°C° 0.1 mm 3 mps 715 mmHg 58%
    14:00 +10°C° 0.1 mm 3 mps 715 mmHg 54%
    15:00 +9°C° 0 mm 2 mps 715 mmHg 57%
    16:00 +8°C° 0 mm 2 mps 715 mmHg 61%
    17:00 +7°C° 0 mm 2 mps 715 mmHg 65%
    18:00 +7°C° 0 mm 1 mps 715 mmHg 69%
    19:00 +6°C° 0 mm 1 mps 715 mmHg 74%
    20:00 +5°C° 0 mm 1 mps 715 mmHg 79%
    21:00 +5°C° 0 mm 1 mps 716 mmHg 80%
    22:00 +5°C° 0 mm 1 mps 716 mmHg 81%
    23:00 +5°C° 0 mm 1 mps 716 mmHg 82%

    16 November, Friday

    Time Temperature Precipitation Wind Pressure Humidity
    00:00 +5°C° 0.1 mm 1 mps 716 mmHg 84%
    01:00 +4°C° 0.1 mm 1 mps 717 mmHg 85%
    02:00 +4°C° 0.1 mm 1 mps 717 mmHg 87%
    03:00 +4°C° 0.1 mm 1 mps 717 mmHg 88%
    04:00 +4°C° 0.1 mm 1 mps 717 mmHg 90%
    05:00 +4°C° 0.1 mm 1 mps 717 mmHg 91%
    06:00 +4°C° 0 mm 1 mps 717 mmHg 90%
    07:00 +4°C° 0 mm 1 mps 718 mmHg 90%
    08:00 +4°C° 0 mm 1 mps 718 mmHg 89%
    09:00 +4°C° 0 mm 2 mps 718 mmHg 78%
    10:00 +5°C° 0 mm 2 mps 719 mmHg 68%
    11:00 +5°C° 0 mm 3 mps 719 mmHg 57%
    12:00 +7°C° 0 mm 3 mps 719 mmHg 56%
    13:00 +7°C° 0 mm 3 mps 718 mmHg 54%
    14:00 +7°C° 0 mm 3 mps 718 mmHg 53%
    15:00 +5°C° 0 mm 3 mps 718 mmHg 58%
    16:00 +4°C° 0 mm 3 mps 718 mmHg 64%
    17:00 +4°C° 0 mm 2 mps 718 mmHg 69%
    18:00 +3°C° 0 mm 2 mps 718 mmHg 75%
    19:00 +2°C° 0 mm 2 mps 719 mmHg 80%
    20:00 +2°C° 0 mm 1 mps 719 mmHg 86%
    21:00 +2°C° 0 mm 1 mps 719 mmHg 87%
    22:00 +2°C° 0 mm 1 mps 719 mmHg 88%
    23:00 +1°C° 0 mm 1 mps 719 mmHg 90%

    17 November, Saturday

    Time Temperature Precipitation Wind Pressure Humidity
    00:00 +1°C° 0 mm 1 mps 719 mmHg 90%
    01:00 +1°C° 0 mm 1 mps 719 mmHg 90%
    02:00 0°C° 0 mm 1 mps 720 mmHg 90%
    03:00 0°C° 0 mm 1 mps 719 mmHg 89%
    04:00 0°C° 0 mm 1 mps 719 mmHg 88%
    05:00 0°C° 0 mm 1 mps 719 mmHg 87%
    06:00 0°C° 0 mm 1 mps 719 mmHg 84%
    07:00 0°C° 0 mm 1 mps 720 mmHg 81%
    08:00 0°C° 0 mm 1 mps 720 mmHg 79%
    09:00 +2°C° 0 mm 1 mps 720 mmHg 69%
    10:00 +2°C° 0 mm 2 mps 720 mmHg 59%
    11:00 +4°C° 0 mm 2 mps 720 mmHg 49%
    12:00 +5°C° 0 mm 2 mps 720 mmHg 48%
    13:00 +5°C° 0 mm 2 mps 719 mmHg 47%
    14:00 +6°C° 0 mm 2 mps 719 mmHg 47%
    15:00 +5°C° 0 mm 2 mps 719 mmHg 52%
    16:00 +3°C° 0 mm 2 mps 718 mmHg 58%
    17:00 +2°C° 0 mm 2 mps 718 mmHg 64%
    18:00 +1°C° 0 mm 2 mps 718 mmHg 68%
    19:00 +1°C° 0 mm 1 mps 719 mmHg 73%
    20:00 0°C° 0 mm 1 mps 719 mmHg 78%
    21:00 0°C° 0 mm 1 mps 719 mmHg 79%
    22:00 0°C° 0 mm 1 mps 719 mmHg 81%
    23:00 0°C° 0 mm 1 mps 719 mmHg 82%

    18 November, Sunday

    Time Temperature Precipitation Wind Pressure Humidity
    00:00 -1°C° 0 mm 1 mps 719 mmHg 83%
    01:00 -1°C° 0 mm 1 mps 718 mmHg 84%
    02:00 -1°C° 0 mm 1 mps 718 mmHg 85%
    03:00 -1°C° 0 mm 1 mps 718 mmHg 86%
    04:00 -1°C° 0 mm 1 mps 718 mmHg 86%
    05:00 -1°C° 0 mm 1 mps 717 mmHg 87%
    06:00 -1°C° 0 mm 1 mps 717 mmHg 86%
    07:00 -1°C° 0 mm 1 mps 717 mmHg 84%
    08:00 -1°C° 0 mm 1 mps 717 mmHg 83%
    09:00 +1°C° 0 mm 1 mps 717 mmHg 74%
    10:00 +3°C° 0 mm 1 mps 717 mmHg 65%
    11:00 +4°C° 0 mm 2 mps 717 mmHg 56%
    12:00 +5°C° 0 mm 2 mps 716 mmHg 53%
    13:00 +6°C° 0 mm 2 mps 715 mmHg 50%
    14:00 +7°C° 0 mm 2 mps 714 mmHg 47%
    15:00 +5°C° 0 mm 2 mps 714 mmHg 53%
    16:00 +5°C° 0 mm 1 mps 713 mmHg 59%
    17:00 +3°C° 0 mm 1 mps 712 mmHg 65%
    18:00 +3°C° 0 mm 1 mps 712 mmHg 68%
    19:00 +2°C° 0 mm 1 mps 712 mmHg 71%
    20:00 +2°C° 0 mm 1 mps 711 mmHg 74%
    21:00 +2°C° 0 mm 1 mps 711 mmHg 74%
    22:00 +1°C° 0 mm 1 mps 710 mmHg 74%
    23:00 0°C° 0 mm 0 mps 710 mmHg 74%
    Show more